Location: Tamazert
(32.6352°N, 5.2072°W)
Time: 01:49:55
(UTC+00:00)

Altair - Pass Details

Date: 10 October 2022
Orbit: 1501 x 1682 km, 47.2° (Epoch: 05 December)

Event Time Altitude Azimuth Distance (km) Brightness Sun altitude
Exits shadow 01:47:31 23° 71° (ENE) 2,903 9.1 -55.2°
Drops below altitude 10° 01:50:46 10° 62° (ENE) 3,829 10.0 -54.7°
Sets 01:54:03 0° 57° (ENE) 4,842 10.7 -54.1°
